This is the latest recevied weather packets stored in our database for station/object KB5DPX. If no packets are shown the sender has not sent any weather packets the latest 10 day(s).
| Time | Temp. | Humidity | Pressure | Rain* | Wind** | Luminosity | Snow |
|---|---|---|---|---|---|---|---|
| 1777379566 | 12.78° C | 86% | 1001.5 hPa | 0.25 mm | - | 47 W/m² | - |
| 1777379265 | 13.33° C | 86% | 1001.4 hPa | 0.25 mm | - | 30 W/m² | - |
| 1777378970 | 13.33° C | 86% | 1001.3 hPa | 0.25 mm | - | 21 W/m² | - |
| 1777378657 | 13.33° C | 86% | 1001.1 hPa | 0.25 mm | - | 25 W/m² | - |
| 1777378374 | 13.33° C | 87% | 1001 hPa | 0.25 mm | - | 25 W/m² | - |
| 1777378060 | 13.33° C | 87% | 1000.9 hPa | 0 mm | - | 14 W/m² | - |
| 1777377776 | 13.33° C | 86% | 1000.7 hPa | 0 mm | - | 14 W/m² | - |
| 1777377451 | 13.89° C | 85% | 1000.6 hPa | 0 mm | - | 40 W/m² | - |
| 1777377166 | 13.89° C | 85% | 1000.5 hPa | 0 mm | - | 12 W/m² | - |
| 1777376851 | 13.89° C | 84% | 1000.5 hPa | 0 mm | - | 11 W/m² | - |
| 1777376566 | 13.89° C | 83% | 1000.4 hPa | 0 mm | - | 9 W/m² | - |
| 1777376255 | 13.89° C | 82% | 1000.3 hPa | 0 mm | - | 11 W/m² | - |
| 1777375971 | 13.89° C | 81% | 1000.1 hPa | 0 mm | - | 9 W/m² | - |
| 1777375652 | 13.89° C | 80% | 999.9 hPa | 0 mm | - | 9 W/m² | - |
| 1777375369 | 13.89° C | 80% | 999.9 hPa | 0 mm | - | 9 W/m² | - |
| 1777375054 | 13.89° C | 78% | 999.9 hPa | 0 mm | - | 9 W/m² | - |
| 1777374767 | 13.89° C | 78% | 999.7 hPa | 0 mm | - | 0 W/m² | - |
| 1777374476 | 13.89° C | 77% | 999.8 hPa | 0 mm | - | 0 W/m² | - |
| 1777374179 | 13.89° C | 77% | 999.6 hPa | 0 mm | - | 0 W/m² | - |
| 1777373854 | 13.89° C | 76% | 999.5 hPa | 0 mm | - | 0 W/m² | - |
| 1777373565 | 13.89° C | 76% | 999.5 hPa | 0 mm | - | 0 W/m² | - |
| 1777373278 | 13.89° C | 76% | 999.3 hPa | 0 mm | - | 0 W/m² | - |
| 1777372961 | 13.89° C | 76% | 999.2 hPa | 0.25 mm | - | 0 W/m² | - |
| 1777372668 | 13.89° C | 76% | 999.1 hPa | 0.25 mm | - | 0 W/m² | - |
| 1777372353 | 13.89° C | 77% | 999.1 hPa | 0.76 mm | - | 0 W/m² | - |
* Rain latest hour (hover to see other rain measurements)
** Current wind speed in m/s (hover to see current wind gust speed)